Regional Weather Roundup
Issued by NWS Austin/San Antonio, TX

Home | Current Version | Previous Version | Text Only | Print | Product List | Glossary On
Versions: 1 2 3 4 5 6 7 8 9 10 11 12 13 14 15 16 17 18 19 20 21 22 23 24 25 26 27 28 29 30 31 32 33 34 35 36 37 38 39 40 41 42 43 44 45 46 47 48 49 50
000
ASUS44 KEWX 272212
RWREWX
SOUTH TEXAS REGIONAL WEATHER ROUNDUP
NATIONAL WEATHER SERVICE AUSTIN/SAN ANTONIO TX
500 PM CDT TUE JUN 27 2017

NOTE: "FAIR" INDICATED FEW OR NO CLOUDS BELOW 12,000 FEET WITH NO
SIGNIFICANT WEATHER AND/OR OBSTRUCTIONS TO VISIBILITY.

* - THESE STATIONS ARE NOT NWS OR FAA STATIONS...AND ARE NOT SUBJECT
    TO NWS AND FAA QUALITY CONTROL.

TXZ171-172-183>190-272300-
TEXAS HILL COUNTRY AND EDWARDS PLATEAU

CITY           SKY/WX    TMP DP  RH WIND       PRES   REMARKS
JUNCTION       PTSUNNY   89  63  41 E13       29.96F HX  90
*LLANO         SUNNY     90  72  55 SE8       29.98F HX  96
BURNET         MOSUNNY   87  67  51 SE9       29.98F HX  90
*HORSESHOE BAY MOSUNNY   88  69  52 MISG      29.95F HX  92
*KERRVILLE     PTSUNNY   85  71  63 E12       29.98F
*FREDERICKSBRG MOSUNNY   83  67  59 E7        29.99F
*ROCKSPRINGS   MOSUNNY   88  64  45 SE12      30.01F
*BOERNE STAGE  CLOUDY    77  68  73 E7        30.00R
*CASTROVILLE   CLOUDY    87  68  52 SE9G18    29.95F HX  91
HONDO          MOSUNNY   85  71  63 S14       29.94F HX  90
*UVALDE        PTSUNNY   83  69  62 NE15      29.94S
DEL RIO        MOSUNNY   93  64  38 E10       29.89F HX  94
LAUGHLIN AFB   NOT AVBL
CARRIZO SPRGS  CLOUDY    88  70  55 SE9G20    29.90F HX  92
*EAGLE PASS    CLEAR     91  68  46 E13G21    29.89F HX  95
$$

TXZ173-191>194-202-209-217>225-228-272300-
CENTRAL AND SOUTH CENTRAL TEXAS

CITY           SKY/WX    TMP DP  RH WIND       PRES   REMARKS
GEORGETOWN     SUNNY     91  66  43 E8G16     29.94F HX  94
AUSTIN/BERGSTM PTSUNNY   85  70  60 SE24G32   29.93S
AUSTIN/MABRY   MOSUNNY   90  68  48 E5        29.94F HX  94
*AUSTIN/EXEC     N/A     90  70  51 E15       29.95S HX  95
*LAGO VISTA    SUNNY     89  66  46 E8        29.97F HX  92
SAN MARCOS     MOSUNNY   84  72  65 S13       29.95F
NEW BRAUNFELS  CLOUDY    81  71  71 S15       29.94F
RANDOLPH AFB   NOT AVBL
PT SAN ANTONIO CLOUDY    75  73  94 SE13      29.94R
SAN ANTONIO    LGT RAIN  77  72  84 E15       29.96S
STINSON FIELD  LGT RAIN  79  70  74 E8        29.94S
*LA GRANGE     LGT RAIN  75  74  97 CALM      29.96F
*GIDDINGS      LGT RAIN  76  71  85 S3        29.98R
*GONZALES      CLOUDY    83  73  70 SE12      29.96S
$$

TXZ163>164-176>182-195>201-210>213-226-227-235-272300-
SOUTHEAST TEXAS

CITY           SKY/WX    TMP DP  RH WIND       PRES   REMARKS
COLLEGE STN    CLOUDY    82  72  71 S16       29.95F
*BRYAN         LGT RAIN  78  74  86 CALM      29.96F
*CALDWELL      NOT AVBL
*CROCKETT      CLOUDY    88  72  58 SE6       29.97F HX  94
*BRENHAM       CLOUDY    80  76  88 S3        29.97F
HUNTSVILLE     HVY RAIN  82  72  71 E7        29.96S
CONROE         CLOUDY    84  72  67 S12       29.95F
HOUSTON BUSH   PTSUNNY   83  73  72 SE12      29.95F
HOUSTON HOBBY  LGT RAIN  82  73  74 E6        29.94F
*HOUSTON SW AP CLOUDY    81  73  76 SE8       29.95F
PEARLAND       NOT AVBL
HOUSTON HOOKS  CLOUDY    84  72  67 SE9       29.95F
ELLINGTON FLD  PTSUNNY   82  77  83 NE7       29.97F HX  91
SUGAR LAND     CLOUDY    84  72  67 SE10      29.95F
*HOUSTON EXEC  CLOUDY    84  73  70 S7        29.97F HX  91
*CLEVELAND MUN CLOUDY    86  74  67 SE7       29.95F HX  93
*WHARTON       DRIZZLE   75  71  86 CALM      29.96S
*COLUMBUS      PTSUNNY   78  74  88 CALM      29.98S
*EAGLE LAKE    CLOUDY    81  76  85 E3        29.96R
$$

TXZ214>216-236>238-272300-
THE UPPER TEXAS COAST

CITY           SKY/WX    TMP DP  RH WIND       PRES   REMARKS
*ORANGE        CLOUDY    84  74  71 SE9       29.97F HX  91
PORT ARTHUR    CLOUDY    82  72  71 SE9       29.98S
GALVESTON      LGT RAIN  78  75  90 E14G24    29.95F
ANGLETON       LGT RAIN  80  76  87 E5        29.94F
*BAY CITY      LGT RAIN  80  74  82 SE8       29.95R
PALACIOS       PTSUNNY   81  71  71 E12       29.93S
$$

TXZ229>234-239>247-272300-
TEXAS COASTAL BEND AND RIO GRANDE PLAINS

CITY           SKY/WX    TMP DP  RH WIND       PRES   REMARKS
VICTORIA       LGT RAIN  75  72  90 NE7       29.95R
*BEEVILLE      PTSUNNY   87  73  62 E13       29.92F HX  94
ROCKPORT       SUNNY     86  72  62 E13       29.90F HX  92
*PORT ARANSAS  PTSUNNY   83  72  71 E9        29.91R
*PORT LAVACA   PTSUNNY   82  73  74 CALM      29.93F
*INGLESIDE     MOSUNNY   85  75  70 MISG      29.90F HX  94
CORPUS CHRISTI MOSUNNY   89  73  59 E14       29.90S HX  97
CORPUS NAS     CLOUDY    87  76  69 E9        29.90R HX  97
*ROBSTOWN      MOSUNNY   85  73  67 E13       29.90S HX  92
ALICE          MOSUNNY   88  69  53 E15G21    29.89F HX  92
KINGSVILLE NAS CLOUDY    87  74  64 E14       29.89R HX  95
COTULLA        CLOUDY    79  74  84 E9        29.92F
*FAITH RANCH   MOSUNNY   90  72  55 E15G22    29.90F HX  96
LAREDO         CLOUDY    84  71  65 N12       29.89S
$$

TXZ248>255-272300-
DEEP SOUTH TEXAS

CITY           SKY/WX    TMP DP  RH WIND       PRES   REMARKS
BROWNSVILLE    CLOUDY    81  77  88 E8        29.87F
PORT ISABEL    CLOUDY    83  76  79 E12       29.86F HX  91
*SOUTH PADRE   NOT AVBL
HARLINGEN      LGT RAIN  86  77  74 E14       29.85F HX  97
*HEBBRONVILLE  SUNNY     82  71  68 E14       29.90F
MCALLEN        PTSUNNY   92  73  53 E13G22    29.85F HX 100
*WESLACO       CLOUDY    88  73  61 E8G16     29.84F HX  95
FALFURRIAS     MOSUNNY   88  71  58 E13G18    29.87S HX  94
EDINBURG       CLOUDY    92  71  49 E14       29.85F HX  99
*ZAPATA        CLOUDY    93  68  44 E10G22    29.84F HX  97
$$

TXZ213>215-236>238-242>244-246-247-251-254-255-272300-
CMAN STATIONS

STATION/POSITION TIME  TEMP    WIND        PRES    WAVE
                       AIR SEA DIR/SP/G            HT/PER
                 (UTC) (F)     (DEG/KT/KT) (MB)    (FT/S)
SABINE PASS      2148   80 86  100/ 10/ 13 1015.9
SEA RIM ST PARK  2200   80     150/ 12/ 14 1014.7
NORTH JETTY/GLS  2148          130/ 17/ 20 1013.8
EAGLE POINT      2148   81 84  150/ 13/ 16 1014.2
MORGANS POINT    2148   78 84   90/  9/ 12 1013.9
MISSION/ARANSAS  2100          100/  7       N/A
PORT O`CONNOR    2148   82      70/ 15/ 18 1012.7
PORT ARANSAS     2200   80 85   40/ 10/ 11 1012.8
MALAQUITE BEACH  2148   80 85   80/ 12/ 13 1011.8
BAFFIN BAY       2148   80 86              1012.3
PORT ISABEL      2148   82 87              1011.2
$$




USA.gov is the U.S. government's official web portal to all federal, state and local government web resources and services.